Ellington Field, TX

8:42 PM CDT on March 30, 2017 (GMT -0500)
Ellington

Weather History for KEFD - October, 2012

Change the Weather History Date:

Tuesday, October 30, 2012

  Actual Average Record
Temperature  
Mean Temperature 65 °F -  
Max Temperature 80 °F 75 °F 87 °F (2004)
Min Temperature 50 °F 58 °F 46 °F (2010)
Growing Degree Days 15 (Base 50)    
Moisture  
Dew Point 46 °F    
Average Humidity 57    
Maximum Humidity 76    
Minimum Humidity 30    
Precipitation  
Precipitation 0.00 in - - ()
Sea Level Pressure  
Sea Level Pressure 30.09 in    
Wind  
Wind Speed 2 mph (SE)    
Max Wind Speed 9 mph    
Max Gust Speed -    
Visibility 10 miles    
Events      
Averages and records for this station are not official NWS values.
T = Trace of Precipitation, MM = Missing Value Source: NWS Daily Summary

Daily Weather History Graph

Daily Weather History Graph

Search for Another Location

Airport or City:

Trip Planner

Search our weather history database for the weather conditions in past years. The results will help you decide how hot, cold, wet, or windy it might be!

Date:

Astronomy

Oct. 30, 2012 Rise Set
Actual Time 7:32 AM CDT 6:35 PM CDT
Civil Twilight 7:08 AM CDT 6:59 PM CDT
Nautical Twilight 6:40 AM CDT 7:27 PM CDT
Astronomical Twilight 6:12 AM CDT 7:55 PM CDT
Moon 7:11 PM CDT (10/30) 8:14 AM CDT (10/30)
Length of Visible Light 11h 51m
Length of Day
11h 02m
Full, 99% of the Moon is Illuminated
Oct 30
Full
Nov 6
Last Quarter
Nov 13
New
Nov 20
First Quarter
Nov 28
Full

Hourly Weather History & Observations

Time (CDT) Temp. Dew Point Humidity Pressure Visibility Wind Dir Wind Speed Gust Speed Precip Events Conditions
12:50 AM 53.6 °F 39.2 °F 58% 30.15 in 10.0 mi Calm Calm - N/A   Clear
1:50 AM 51.8 °F 39.2 °F 62% 30.15 in 10.0 mi Calm Calm - N/A   Clear
2:50 AM 50.0 °F 41.0 °F 71% 30.15 in 10.0 mi Calm Calm - N/A   Clear
3:50 AM 50.0 °F 42.8 °F 76% 30.14 in 10.0 mi Calm Calm - N/A   Clear
4:50 AM 50.0 °F 39.2 °F 66% 30.14 in 10.0 mi Calm Calm - N/A   Clear
5:50 AM 50.0 °F 39.2 °F 66% 30.12 in 10.0 mi Calm Calm - N/A   Clear
6:50 AM 51.8 °F 41.0 °F 67% 30.12 in 10.0 mi Calm Calm - N/A   Clear
7:30 AM 51.8 °F 42.8 °F 71% 30.13 in 10.0 mi Calm Calm - N/A   Clear
8:50 AM 55.4 °F 42.8 °F 63% 30.14 in 10.0 mi Calm Calm - N/A   Partly Cloudy
9:50 AM 59.0 °F 50.0 °F 72% 30.14 in 10.0 mi ENE 3.5 mph - N/A   Partly Cloudy
10:50 AM 64.4 °F 50.0 °F 59% 30.14 in 10.0 mi South 4.6 mph - N/A   Partly Cloudy
12:50 PM 71.6 °F 46.4 °F 41% 30.11 in 10.0 mi SSE 8.1 mph - N/A   Partly Cloudy
1:50 PM 75.2 °F 46.4 °F 36% 30.06 in 10.0 mi South 8.1 mph - N/A   Scattered Clouds
2:50 PM 77.0 °F 48.2 °F 36% 30.04 in 10.0 mi East 8.1 mph - N/A   Scattered Clouds
3:50 PM 77.0 °F 48.2 °F 36% 30.01 in 10.0 mi ESE 9.2 mph - N/A   Scattered Clouds
4:50 PM 77.0 °F 46.4 °F 34% 30.01 in 10.0 mi ESE 8.1 mph - N/A   Partly Cloudy
5:50 PM 80.6 °F 46.4 °F 30% 30.01 in 10.0 mi ESE 6.9 mph - N/A   Partly Cloudy
6:50 PM 71.6 °F 50.0 °F 46% 30.01 in 10.0 mi SE 4.6 mph - N/A   Partly Cloudy
7:50 PM 68.0 °F 51.8 °F 56% 30.03 in 10.0 mi SE 4.6 mph - N/A   Clear
8:50 PM 66.2 °F 53.6 °F 64% 30.03 in 10.0 mi South 4.6 mph - N/A   Clear
9:50 PM 64.4 °F 53.6 °F 68% 30.04 in 10.0 mi Calm Calm - N/A   Clear
10:50 PM 64.4 °F 53.6 °F 68% 30.05 in 10.0 mi Calm Calm - N/A   Clear
11:50 PM 62.6 °F 53.6 °F 72% 30.04 in 10.0 mi South 3.5 mph - N/A   Clear